User: anonymous   Login
Location: Unspecified
(0.0000°N, 0.0000°E)
Time: 11:05:20
(UTC+00:00)
Language:

KAITUO 1B - Orbit

View from above orbital plane
View from above orbital plane
View from above satellite
View from above satellite

Ground track
Ground track

The orbit data is extracted from the following two-line orbital elements,

1 40912U 15049P   19204.06921319  .00000680  00000-0  35038-4 0  9999
2 40912  97.4492 210.9759 0016490  55.7704 351.1420 15.19645354212536
Epoch (UTC): 23 July 2019 01:39:40
Eccentricity: 0.0016490
inclination: 97.4492°
perigee height: 495 km
apogee height: 518 km
right ascension of ascending node: 210.9759°
argument of perigee: 55.7704°
revolutions per day: 15.19645354
mean anomaly at epoch: 351.1420°
orbit number at epoch: 21253

The dashed part of the orbit path shows where the satellite is in the earth's shadow,  

DLR